GTRO2: Cimmarron R.,Guthrie, OK

                                SHEF ID:       GTRO2     Cimarron River near Guthrie, OK
STATION TYPE:
Regulating: Stage = 18.00, Flow = 36779

PRECIP STAGE RIV-FLOW BAT-LOAD
in ft cfs volt
Ccp-Rev Ccp-Rev Ccp-Rev Ccp-Rev
(America/Chicago)
04/30 00:00 ---- 5.55 186 12.73
04/30 01:00 ---- 5.56 190 12.65
04/30 02:00 ---- 5.56 190 12.65
04/30 03:00 ---- 5.57 195 12.65
04/30 04:00 ---- 5.57 195 12.65
04/30 05:00 ---- 5.58 199 12.57
04/30 06:00 ---- 5.58 199 12.57
04/30 07:00 ---- 5.58 199 12.57
04/30 08:00 ---- 5.58 199 12.65
04/30 09:00 ---- 5.59 203 12.89
04/30 10:00 ---- 5.59 203 13.29
04/30 11:00 ---- 5.59 203 13.76
04/30 12:00 ---- 5.58 199 14.00
04/30 13:00 ---- 5.58 199 14.00
04/30 14:00 ---- 5.58 199 13.84
04/30 15:00 ---- 5.57 195 13.53
04/30 16:00 ---- 5.55 186 13.37
04/30 17:00 ---- 5.55 186 13.37
04/30 18:00 ---- 5.55 186 13.21
04/30 19:00 ---- 5.54 182 13.29
04/30 20:00 ---- 5.54 182 13.05
04/30 21:00 ---- 5.53 177 12.81
04/30 22:00 ---- 5.53 177 12.81
04/30 23:00 ---- ---- ---- ----
Data processed at Fri 01May2026 03:47 GMT

NOTICE: If you are parsing this page

Please convert to using our Data API. Starting early 2026 we will be migrating to: https://water.usace.army.mil with modern pages rendered in JavaScript. When this migration completes you will no longer be able to scrape this page! CWMSDataAPI (CDA)

Timeseries IDs (TSIDs)

TSIDs used from left to right in the data table
GUTH.Precip-Inc.Total.1Hour.1Hour.Ccp-Rev
GUTH.Stage.Inst.1Hour.0.Ccp-Rev
GUTH.Flow.Inst.1Hour.0.Ccp-Rev
GUTH.Volt-Battery Load.Inst.1Hour.0.Ccp-Rev

                            

All information presented herein is the property of the government of the United States of America and may be revised or deleted at any time without prior notice. Dissemination of this information without the expressed written consent of the Public Affairs Office, Tulsa District U.S. Army Corps of Engineers is strictly prohibited. These data are gathered electronically and, as presented, have NOT undergone any form of quality control. These data are NOT guaranteed to be valid or correct.